EN

Hourly Weather Tomakhiv

Today, 21 April, Wednesday

Time Temperature Precipitation Wind Pressure Humidity
00:00 +5°C° 0 mm 2 mps 740 mmHg 90%
01:00 +4°C° 0 mm 2 mps 740 mmHg 91%
02:00 +4°C° 0 mm 2 mps 740 mmHg 91%
03:00 +4°C° 0 mm 2 mps 740 mmHg 91%
04:00 +4°C° 0 mm 2 mps 740 mmHg 90%
05:00 +4°C° 0 mm 2 mps 740 mmHg 90%
06:00 +5°C° 0 mm 2 mps 741 mmHg 88%
07:00 +6°C° 0 mm 2 mps 741 mmHg 86%
08:00 +6°C° 0 mm 2 mps 741 mmHg 83%
09:00 +8°C° 0 mm 2 mps 741 mmHg 78%
10:00 +9°C° 0 mm 3 mps 741 mmHg 73%
11:00 +11°C° 0 mm 3 mps 741 mmHg 67%
12:00 +12°C° 0.4 mm 4 mps 741 mmHg 63%
13:00 +13°C° 0.4 mm 4 mps 741 mmHg 59%
14:00 +14°C° 0.4 mm 5 mps 741 mmHg 55%
15:00 +13°C° 0.3 mm 4 mps 741 mmHg 56%
16:00 +13°C° 0.3 mm 4 mps 740 mmHg 57%
17:00 +13°C° 0.3 mm 3 mps 740 mmHg 58%
18:00 +12°C° 0.2 mm 3 mps 741 mmHg 66%
19:00 +10°C° 0.2 mm 3 mps 741 mmHg 74%
20:00 +8°C° 0.2 mm 3 mps 741 mmHg 81%
21:00 +8°C° 0.1 mm 3 mps 741 mmHg 82%
22:00 +8°C° 0.1 mm 3 mps 741 mmHg 84%
23:00 +7°C° 0.1 mm 3 mps 741 mmHg 85%

Tomorrow, 22 April, Thursday

Time Temperature Precipitation Wind Pressure Humidity
00:00 +7°C° 0 mm 4 mps 741 mmHg 85%
01:00 +7°C° 0 mm 4 mps 742 mmHg 86%
02:00 +7°C° 0 mm 4 mps 742 mmHg 87%
03:00 +7°C° 0 mm 4 mps 742 mmHg 89%
04:00 +6°C° 0 mm 4 mps 742 mmHg 91%
05:00 +5°C° 0 mm 4 mps 742 mmHg 93%
06:00 +7°C° 0 mm 4 mps 742 mmHg 88%
07:00 +8°C° 0 mm 5 mps 742 mmHg 83%
08:00 +9°C° 0 mm 5 mps 742 mmHg 78%
09:00 +10°C° 0.3 mm 5 mps 742 mmHg 74%
10:00 +12°C° 0.3 mm 5 mps 742 mmHg 69%
11:00 +14°C° 0.3 mm 6 mps 742 mmHg 65%
12:00 +13°C° 0.8 mm 6 mps 742 mmHg 71%
13:00 +11°C° 0.8 mm 6 mps 742 mmHg 76%
14:00 +10°C° 0.8 mm 6 mps 742 mmHg 82%
15:00 +10°C° 0.5 mm 5 mps 742 mmHg 80%
16:00 +11°C° 0.5 mm 4 mps 742 mmHg 77%
17:00 +11°C° 0.5 mm 4 mps 742 mmHg 75%
18:00 +10°C° 0.9 mm 4 mps 743 mmHg 80%
19:00 +7°C° 0.9 mm 4 mps 743 mmHg 85%
20:00 +6°C° 0.9 mm 4 mps 743 mmHg 90%
21:00 +7°C° 0.9 mm 3 mps 743 mmHg 90%
22:00 +5°C° 0.9 mm 3 mps 744 mmHg 90%
23:00 +4°C° 0.9 mm 3 mps 744 mmHg 90%

Day after tomorrow, 23 April, Friday

Time Temperature Precipitation Wind Pressure Humidity
00:00 +4°C° 0 mm 3 mps 744 mmHg 90%
01:00 +3°C° 0 mm 3 mps 744 mmHg 90%
02:00 +3°C° 0 mm 3 mps 744 mmHg 90%
03:00 +3°C° 0 mm 3 mps 744 mmHg 89%
04:00 +2°C° 0 mm 3 mps 744 mmHg 88%
05:00 +2°C° 0 mm 3 mps 744 mmHg 87%
06:00 +2°C° 0 mm 3 mps 744 mmHg 83%
07:00 +3°C° 0 mm 4 mps 745 mmHg 79%
08:00 +3°C° 0 mm 4 mps 745 mmHg 75%
09:00 +5°C° 0 mm 5 mps 745 mmHg 67%
10:00 +6°C° 0 mm 5 mps 745 mmHg 59%
11:00 +7°C° 0 mm 6 mps 745 mmHg 51%
12:00 +7°C° 0 mm 6 mps 745 mmHg 51%
13:00 +7°C° 0 mm 6 mps 745 mmHg 50%
14:00 +7°C° 0 mm 6 mps 745 mmHg 50%
15:00 +7°C° 0.2 mm 5 mps 745 mmHg 51%
16:00 +7°C° 0.2 mm 5 mps 745 mmHg 53%
17:00 +7°C° 0.2 mm 4 mps 744 mmHg 55%
18:00 +5°C° 0.1 mm 4 mps 744 mmHg 61%
19:00 +4°C° 0.1 mm 3 mps 744 mmHg 67%
20:00 +4°C° 0.1 mm 2 mps 745 mmHg 73%
21:00 +2°C° 0 mm 3 mps 744 mmHg 77%
22:00 +1°C° 0 mm 4 mps 744 mmHg 81%
23:00 +1°C° 0 mm 4 mps 744 mmHg 85%

24 April, Saturday

Time Temperature Precipitation Wind Pressure Humidity
00:00 +1°C° 0.2 mm 5 mps 744 mmHg 85%
01:00 +1°C° 0.2 mm 6 mps 744 mmHg 86%
02:00 -1°C° 0.2 mm 6 mps 744 mmHg 86%
03:00 -1°C° 0.1 mm 7 mps 744 mmHg 86%
04:00 -2°C° 0.1 mm 7 mps 744 mmHg 86%
05:00 -2°C° 0.1 mm 7 mps 745 mmHg 86%
06:00 -2°C° 0 mm 7 mps 745 mmHg 81%
07:00 -1°C° 0 mm 7 mps 746 mmHg 76%
08:00 -1°C° 0 mm 7 mps 746 mmHg 71%
09:00 0°C° 0.2 mm 7 mps 746 mmHg 67%
10:00 +2°C° 0.2 mm 7 mps 746 mmHg 62%
11:00 +3°C° 0.2 mm 7 mps 746 mmHg 58%
12:00 +4°C° 0.2 mm 7 mps 746 mmHg 54%
13:00 +4°C° 0.2 mm 7 mps 746 mmHg 50%
14:00 +5°C° 0.2 mm 8 mps 746 mmHg 46%
15:00 +5°C° 0.1 mm 7 mps 746 mmHg 49%
16:00 +5°C° 0.1 mm 7 mps 746 mmHg 53%
17:00 +5°C° 0.1 mm 7 mps 746 mmHg 57%
18:00 +4°C° 0.1 mm 6 mps 746 mmHg 60%
19:00 +3°C° 0.1 mm 5 mps 746 mmHg 64%
20:00 +1°C° 0.1 mm 4 mps 746 mmHg 68%
21:00 +1°C° 0 mm 4 mps 746 mmHg 71%
22:00 0°C° 0 mm 4 mps 746 mmHg 74%
23:00 -1°C° 0 mm 4 mps 746 mmHg 77%

25 April, Sunday

Time Temperature Precipitation Wind Pressure Humidity
00:00 0°C° 0 mm 3 mps 746 mmHg 79%
01:00 -1°C° 0 mm 3 mps 746 mmHg 80%
02:00 -1°C° 0 mm 3 mps 746 mmHg 82%
03:00 -1°C° 0 mm 3 mps 746 mmHg 86%
04:00 -2°C° 0 mm 4 mps 746 mmHg 89%
05:00 -2°C° 0 mm 4 mps 746 mmHg 93%
06:00 -1°C° 0 mm 5 mps 746 mmHg 84%
07:00 0°C° 0 mm 5 mps 747 mmHg 74%
08:00 +1°C° 0 mm 6 mps 747 mmHg 65%
09:00 +1°C° 0.1 mm 6 mps 747 mmHg 62%
10:00 +2°C° 0.1 mm 7 mps 747 mmHg 59%
11:00 +3°C° 0.1 mm 7 mps 747 mmHg 55%
12:00 +3°C° 0.1 mm 7 mps 747 mmHg 52%
13:00 +4°C° 0.1 mm 7 mps 747 mmHg 50%
14:00 +5°C° 0.1 mm 7 mps 747 mmHg 47%
15:00 +5°C° 0.1 mm 6 mps 747 mmHg 49%
16:00 +5°C° 0.1 mm 6 mps 746 mmHg 51%
17:00 +4°C° 0.1 mm 6 mps 746 mmHg 53%
18:00 +3°C° 0.1 mm 5 mps 746 mmHg 60%
19:00 +3°C° 0.1 mm 4 mps 746 mmHg 67%
20:00 +1°C° 0.1 mm 3 mps 747 mmHg 74%
21:00 +1°C° 0 mm 3 mps 746 mmHg 77%
22:00 +1°C° 0 mm 3 mps 746 mmHg 79%
23:00 -1°C° 0 mm 4 mps 746 mmHg 82%

26 April, Monday

Time Temperature Precipitation Wind Pressure Humidity
00:00 -1°C° 0.1 mm 4 mps 746 mmHg 86%
01:00 -1°C° 0.1 mm 4 mps 746 mmHg 91%
02:00 -1°C° 0.1 mm 4 mps 746 mmHg 96%
03:00 -2°C° 0 mm 4 mps 746 mmHg 95%
04:00 -2°C° 0 mm 4 mps 746 mmHg 94%
05:00 -3°C° 0 mm 4 mps 746 mmHg 93%
06:00 -2°C° 0 mm 4 mps 746 mmHg 83%
07:00 -1°C° 0 mm 5 mps 747 mmHg 73%
08:00 -1°C° 0 mm 6 mps 747 mmHg 64%
09:00 +1°C° 0 mm 6 mps 747 mmHg 59%
10:00 +2°C° 0 mm 6 mps 747 mmHg 54%
11:00 +4°C° 0 mm 6 mps 747 mmHg 49%
12:00 +4°C° 0 mm 6 mps 747 mmHg 47%
13:00 +5°C° 0 mm 6 mps 746 mmHg 46%
14:00 +7°C° 0 mm 6 mps 746 mmHg 44%
15:00 +8°C° 0 mm 5 mps 746 mmHg 46%
16:00 +8°C° 0 mm 5 mps 746 mmHg 47%
17:00 +8°C° 0 mm 4 mps 746 mmHg 49%
18:00 +8°C° 0 mm 3 mps 746 mmHg 54%
19:00 +6°C° 0 mm 2 mps 746 mmHg 60%
20:00 +5°C° 0 mm 2 mps 746 mmHg 65%
21:00 +4°C° 0 mm 2 mps 746 mmHg 67%
22:00 +4°C° 0 mm 2 mps 746 mmHg 69%
23:00 +3°C° 0 mm 2 mps 746 mmHg 71%
Show more

We Need Your Consent

Meteoprog and our Service Providers may store and access personal data such as cookies, device identifiers or other similar technologies on your device and process such data to personalise content and ads, as well as provide social media features and to analyse the traffic.

  • Store and/or access information on your device

    Cookies, device identifiers or other information can be stored or accessed on your device for the purposes indicated above.

  • Personalised ads and content, ad and content measurement, audience insights, and products development

    Ads and content can be personalised based on a profile. More data can be added to better personalise ads and content. Ad and content performance can be measured. Insights about the audience who saw the ads and content can be derived. Such data can be used to develop or improve user’s experience, systems and software.

By clicking ‘I Agree’ you will allow the use of indicated cookies, device identifiers, web beacons or other similar technologies. Your settings can be changed in the browser on your device.

For certain purposes, legitimate interests may be relied on, rather than consent. You can read more about this in our Privacy and Cookie Policy.